Location: Newark
(41.6500°N, 71.4833°W)
Time: 22:46:37
(UTC+00:00)

Courier 1B - Pass Details

Date: 24 January 2020
Orbit: 962 x 1209 km, 28.3° (Epoch: 19 February)

Event Time Altitude Azimuth Distance (km) Brightness Sun altitude
Rises 09:35:39 0° 245° (WSW) 3,946 - -27.9°
Reaches altitude 10° 09:38:45 10° 235° (SW) 3,024 - -27.3°
Exits shadow 09:42:33 25° 209° (SSW) 2,170 9.0 -26.6°
Maximum altitude 09:45:03 30° 178° (S) 1,982 9.1 -26.1°
Drops below altitude 10° 09:51:33 10° 121° (ESE) 3,129 11.0 -24.9°
Sets 09:54:50 0° 111° (ESE) 4,104 12.0 -24.3°
